This is the latest recevied weather packets stored in our database for station/object KE8CZD. If no packets are shown the sender has not sent any weather packets the latest 10 day(s).
| Time | Temp. | Humidity | Pressure | Rain* | Wind** | Luminosity | Snow |
|---|---|---|---|---|---|---|---|
| 1777699484 | 3.33° C | 73% | 1014.9 hPa | 0 mm | - | - | - |
| 1777699124 | 3.33° C | 73% | 1014.9 hPa | 0 mm | - | - | - |
| 1777698764 | 3.33° C | 73% | 0 hPa | 0 mm | - | - | - |
| 1777698404 | 3.89° C | 73% | 1014.7 hPa | 0 mm | - | - | - |
| 1777698044 | 3.89° C | 72% | 1014.7 hPa | 0 mm | - | - | - |
| 1777697684 | 3.89° C | 71% | 1014.7 hPa | 0 mm | - | - | - |
| 1777697324 | 3.89° C | 71% | 1014.5 hPa | 0 mm | - | - | - |
| 1777696964 | 3.89° C | 70% | 1014.5 hPa | 0 mm | - | - | - |
| 1777696605 | 3.89° C | 69% | 1014.5 hPa | 0 mm | - | - | - |
| 1777693004 | 4.44° C | 64% | 1014.3 hPa | 0 mm | - | - | - |
| 1777692644 | 4.44° C | 64% | 1014.2 hPa | 0 mm | - | - | - |
| 1777692284 | 4.44° C | 62% | 1014.3 hPa | 0 mm | - | - | - |
| 1777691924 | 4.44° C | 62% | 1014.2 hPa | 0 mm | - | - | - |
| 1777691564 | 4.44° C | 61% | 1014.2 hPa | 0 mm | - | - | - |
| 1777691204 | 5° C | 61% | 1014.1 hPa | 0 mm | - | - | - |
| 1777690844 | 5° C | 61% | 1014 hPa | 0 mm | - | - | - |
| 1777690484 | 5.56° C | 58% | 1014 hPa | 0 mm | - | - | - |
| 1777690124 | 5.56° C | 53% | 1013.8 hPa | 0 mm | - | - | - |
| 1777689764 | 5.56° C | 51% | 1013.7 hPa | 0 mm | - | - | - |
| 1777689404 | 5.56° C | 52% | 1013.6 hPa | 0 mm | - | - | - |
| 1777689044 | 5.56° C | 51% | 1013.7 hPa | 0 mm | - | - | - |
| 1777688684 | 6.11° C | 51% | 1013.5 hPa | 0 mm | - | - | - |
| 1777688324 | 6.11° C | 50% | 1013.4 hPa | 0 mm | - | - | - |
| 1777687964 | 6.11° C | 51% | 1013.3 hPa | 0 mm | - | - | - |
| 1777687604 | 6.11° C | 51% | 1013.3 hPa | 0 mm | - | - | - |
* Rain latest hour (hover to see other rain measurements)
** Current wind speed in m/s (hover to see current wind gust speed)